Location: Tel Aviv
(32.0670°N, 34.7670°E)
Time: 01:45:47
(UTC+02:00)

Transit 4A - Pass Details

Date: 07 December 2023
Orbit: 869 x 974 km, 66.8° (Epoch: 23 February)

Event Time Altitude Azimuth Distance (km) Brightness Sun altitude
Rises 18:31:13 0° 200° (SSW) 3,646 11.4 -23.8°
Reaches altitude 10° 18:33:46 10° 199° (SSW) 2,707 10.7 -24.3°
Maximum altitude 18:40:07 79° 113° (ESE) 992 7.8 -25.6°
Enters shadow 18:41:32 56° 41° (NE) 1,143 8.0 -25.9°
